Hourly Data Report for January 27, 2021

STE-ANNE-DE-BELLEVUE 1
QUEBEC
Current Station Operator: ECCC - MSC

45°25'38.000" N
73°55'45.000" W
39.00 m
702FHL8
71377
WVQ

Download Data

Hourly Data (January 2021)
Hourly Data Report for January 27, 2021
TIME
LST
Temp Definition
°C
Dew Point Definition
°C
Rel Hum Definition
%
Precip. Amount Definition
mm

Wind Dir Definition
10's deg

Wind Spd Definition
km/h
Visibility Definition
km
Stn Press Definition
kPa
Hmdx Definition


Wind Chill Definition


Weather Definition


00:00 -6.5 -7.6 93 0.7 4 13   100.87   -12 LegendNANA
01:00 -6.5 -7.6 92 0.3 4 16   100.83   -13 LegendNANA
02:00 -6.4 -7.6 92 0.0 3 12   100.88   -12 LegendNANA
03:00 -6.2 -7.3 92 0.2 2 14   100.94   -12 LegendNANA
04:00 -6.0 -7.2 91 0.0 2 14   100.98   -12 LegendNANA
05:00 -5.8 -6.9 92 0.0 2 12   101.06   -11 LegendNANA
06:00 -5.6 -6.7 92 0.0 1 11   101.12   -10 LegendNANA
07:00 -5.4 -6.5 92 0.0 2 9   101.19   -9 LegendNANA
08:00 -5.1 -6.2 92 0.2 1 11   101.25   -10 LegendNANA
09:00 -4.9 -6.1 91 0.0 36 7   101.32   -8 LegendNANA
10:00 -4.3 -5.8 90 0.0 33 9   101.41   -8 LegendNANA
11:00 -3.3 -5.3 86 0.0 33 13   101.44   -8 LegendNANA
12:00 -2.9 -5.3 84 0.0 31 10   101.41   -7 LegendNANA
13:00 -2.5 -5.0 83 0.0 29 8   101.40   -6 LegendNANA
14:00 -2.5 -5.1 82 0.0 27 11   101.43   -7 LegendNANA
15:00 -2.9 -5.4 83 0.0 25 11   101.47   -7 LegendNANA
16:00 -3.2 -5.9 82 0.0 25 11   101.51   -7 LegendNANA
17:00 -3.8 -6.0 85 0.0 25 15   101.54   -9 LegendNANA
18:00 -3.9 -6.1 85 0.0 25 13   101.57   -9 LegendNANA
19:00 -4.1 -6.5 84 0.0 24 13   101.58   -9 LegendNANA
20:00 -4.3 -7.0 82 0.0 25 14   101.58   -9 LegendNANA
21:00 -4.4 -7.1 82 0.0 24 15   101.58   -10 LegendNANA
22:00 -5.2 -7.7 83 0.0 25 16   101.57   -11 LegendNANA
23:00 -5.5 -7.6 85 0.0 23 11   101.60   -10 LegendNANA

Notes on Data Quality.

Legend

  • E = Estimated
  • M = Missing
  • NA = Not Available*
  • [empty] = Indicates an unobserved value
Date modified: